Location: Eboldshausen
(51.7766°N, 10.0050°E)
Time: 16:56:37
(UTC+00:00)

Cosmos 2082 Rocket - Pass Details

Date: 15 November 2025
Orbit: 834 x 851 km, 71.0° (Epoch: 08 December)

Event Time Altitude Azimuth Distance (km) Brightness Sun altitude
Rises 16:31:08 0° 330° (NNW) 3,395 5.5 -9.6°
Reaches altitude 10° 16:33:46 10° 339° (NNW) 2,457 4.7 -9.9°
Maximum altitude 16:38:59 37° 46° (NE) 1,279 2.7 -10.7°
Drops below altitude 10° 16:44:09 10° 114° (ESE) 2,445 4.2 -11.5°
Enters shadow 16:45:27 - 119° (ESE) 2,903 4.6 -11.7°
